owner,sensor,date,latitude,longitude,vertical_datum,direction_of_sea_water_velocity,sea_water_speed,upward_sea_water_velocity,qcFlag 
TABS,ioos:station:wmo:42048:1,1997-06-01T00:00:00Z,27.9396,-96.8429,2.0,210.7036045,33.27449774,-99999.0,'11111222,11111222,99999999' 
TABS,ioos:station:wmo:42048:1,1997-06-01T00:30:00Z,27.9396,-96.8429,2.0,216.2104451,38.59455402,-99999.0,'11111222,11111222,99999999' 
TABS,ioos:station:wmo:42048:1,1997-06-01T01:00:00Z,27.9396,-96.8429,2.0,223.4989053,24.02865997,-99999.0,'11111222,11111222,99999999' 
TABS,ioos:station:wmo:42048:1,1997-06-01T01:30:00Z,27.9396,-96.8429,2.0,226.0653929,28.13357425,-99999.0,'11111222,11111222,99999999' 
TABS,ioos:station:wmo:42048:1,1997-06-01T02:00:00Z,27.9396,-96.8429,2.0,232.5722831,27.95532329,-99999.0,'11111222,11111222,99999999' 
TABS,ioos:station:wmo:42048:1,1997-06-01T02:30:00Z,27.9396,-96.8429,2.0,233.6674397,25.14910734,-99999.0,'11111222,11111222,99999999' 
TABS,ioos:station:wmo:42048:1,1997-06-01T03:00:00Z,27.9396,-96.8429,2.0,229.0732474,31.15605399,-99999.0,'11111222,11111222,99999999' 
TABS,ioos:station:wmo:42048:1,1997-06-01T03:30:00Z,27.9396,-96.8429,2.0,228.5868169,30.40151476,-99999.0,'11111222,11111222,99999999' 
TABS,ioos:station:wmo:42048:1,1997-06-01T04:00:00Z,27.9396,-96.8429,2.0,230.2752319,29.83902478,-99999.0,'11111222,11111222,99999999' 
TABS,ioos:station:wmo:42048:1,1997-06-01T04:30:00Z,27.9396,-96.8429,2.0,227.1875092,27.41329969,-99999.0,'11111222,11111222,99999999' 
TABS,ioos:station:wmo:42048:1,1997-06-01T05:00:00Z,27.9396,-96.8429,2.0,233.0724911,30.01001499,-99999.0,'11111222,11111222,99999999' 
TABS,ioos:station:wmo:42048:1,1997-06-01T05:30:00Z,27.9396,-96.8429,2.0,235.178902,27.40752634,-99999.0,'11111222,11111222,99999999' 
TABS,ioos:station:wmo:42048:1,1997-06-01T06:00:00Z,27.9396,-96.8429,2.0,231.9980204,24.20072106,-99999.0,'11111222,11111222,99999999' 
TABS,ioos:station:wmo:42048:1,1997-06-01T06:30:00Z,27.9396,-96.8429,2.0,230.7255544,26.36520813,-99999.0,'11111222,11111222,99999999' 
TABS,ioos:station:wmo:42048:1,1997-06-01T07:00:00Z,27.9396,-96.8429,2.0,227.0353304,26.67475961,-99999.0,'11111222,11111222,99999999' 
TABS,ioos:station:wmo:42048:1,1997-06-01T07:30:00Z,27.9396,-96.8429,2.0,228.4896105,24.27757195,-99999.0,'11111222,11111222,99999999' 
TABS,ioos:station:wmo:42048:1,1997-06-01T08:00:00Z,27.9396,-96.8429,2.0,224.9996843,23.17896029,-99999.0,'11111222,11111222,99999999' 
TABS,ioos:station:wmo:42048:1,1997-06-01T08:30:00Z,27.9396,-96.8429,2.0,226.0574179,28.34566986,-99999.0,'11111222,11111222,99999999' 
TABS,ioos:station:wmo:42048:1,1997-06-01T09:00:00Z,27.9396,-96.8429,2.0,224.4704908,22.96780791,-99999.0,'11111222,11111222,99999999' 
TABS,ioos:station:wmo:42048:1,1997-06-01T09:30:00Z,27.9396,-96.8429,2.0,225.2537278,23.92165755,-99999.0,'11111222,11111222,99999999' 
TABS,ioos:station:wmo:42048:1,1997-06-01T10:00:00Z,27.9396,-96.8429,2.0,228.0701371,23.63007617,-99999.0,'11111222,11111222,99999999' 
TABS,ioos:station:wmo:42048:1,1997-06-01T10:30:00Z,27.9396,-96.8429,2.0,228.2539048,24.16545054,-99999.0,'11111222,11111222,99999999' 
TABS,ioos:station:wmo:42048:1,1997-06-01T11:00:00Z,27.9396,-96.8429,2.0,226.1648588,20.86396415,-99999.0,'11111222,11111222,99999999' 
TABS,ioos:station:wmo:42048:1,1997-06-01T11:30:00Z,27.9396,-96.8429,2.0,219.9828333,26.44102305,-99999.0,'11111222,11111222,99999999' 
TABS,ioos:station:wmo:42048:1,1997-06-01T12:00:00Z,27.9396,-96.8429,2.0,223.884068,26.87515209,-99999.0,'11111222,11111222,99999999' 
TABS,ioos:station:wmo:42048:1,1997-06-01T12:30:00Z,27.9396,-96.8429,2.0,227.7731373,26.1582358,-99999.0,'11111222,11111222,99999999' 
TABS,ioos:station:wmo:42048:1,1997-06-01T13:00:00Z,27.9396,-96.8429,2.0,227.4676538,24.46737624,-99999.0,'11111222,11111222,99999999' 
TABS,ioos:station:wmo:42048:1,1997-06-01T13:30:00Z,27.9396,-96.8429,2.0,222.9020742,22.98930403,-99999.0,'11111222,11111222,99999999' 
TABS,ioos:station:wmo:42048:1,1997-06-01T14:00:00Z,27.9396,-96.8429,2.0,224.9996843,19.60099997,-99999.0,'11111222,11111222,99999999' 
TABS,ioos:station:wmo:42048:1,1997-06-01T14:30:00Z,27.9396,-96.8429,2.0,221.0466681,21.33467131,-99999.0,'11111222,11111222,99999999' 
TABS,ioos:station:wmo:42048:1,1997-06-01T15:00:00Z,27.9396,-96.8429,2.0,220.7698578,22.81684465,-99999.0,'11111222,11111222,99999999' 
TABS,ioos:station:wmo:42048:1,1997-06-01T15:30:00Z,27.9396,-96.8429,2.0,223.0281799,24.45915984,-99999.0,'11111222,11111222,99999999' 
TABS,ioos:station:wmo:42048:1,1997-06-01T16:00:00Z,27.9396,-96.8429,2.0,229.4878638,24.30708744,-99999.0,'11111222,11111222,99999999' 
TABS,ioos:station:wmo:42048:1,1997-06-01T16:30:00Z,27.9396,-96.8429,2.0,220.0456369,13.42862614,-99999.0,'11111222,11111222,99999999' 
TABS,ioos:station:wmo:42048:1,1997-06-01T17:00:00Z,27.9396,-96.8429,2.0,220.9387552,16.37528015,-99999.0,'11111222,11111222,99999999' 
TABS,ioos:station:wmo:42048:1,1997-06-01T17:30:00Z,27.9396,-96.8429,2.0,223.8345098,20.86396415,-99999.0,'11111222,11111222,99999999' 
TABS,ioos:station:wmo:42048:1,1997-06-01T18:00:00Z,27.9396,-96.8429,2.0,210.6484348,9.357104253,-99999.0,'11133222,11111222,99999999' 
TABS,ioos:station:wmo:42048:1,1997-06-01T18:30:00Z,27.9396,-96.8429,2.0,217.1814035,20.94831019,-99999.0,'11111222,11111222,99999999' 
TABS,ioos:station:wmo:42048:1,1997-06-01T19:00:00Z,27.9396,-96.8429,2.0,206.1578362,18.26019167,-99999.0,'11111222,11111222,99999999' 
TABS,ioos:station:wmo:42048:1,1997-06-01T19:30:00Z,27.9396,-96.8429,2.0,199.6118374,23.08949978,-99999.0,'11111222,11111222,99999999' 
TABS,ioos:station:wmo:42048:1,1997-06-01T20:00:00Z,27.9396,-96.8429,2.0,196.3703662,22.21044124,-99999.0,'11111222,11111222,99999999' 
TABS,ioos:station:wmo:42048:1,1997-06-01T20:30:00Z,27.9396,-96.8429,2.0,195.7025686,23.68392071,-99999.0,'11111222,11111222,99999999' 
TABS,ioos:station:wmo:42048:1,1997-06-01T21:00:00Z,27.9396,-96.8429,2.0,203.01686,23.63133725,-99999.0,'11111222,11111222,99999999' 
TABS,ioos:station:wmo:42048:1,1997-06-01T21:30:00Z,27.9396,-96.8429,2.0,197.3040069,24.03799076,-99999.0,'11111222,11111222,99999999' 
TABS,ioos:station:wmo:42048:1,1997-06-01T22:00:00Z,27.9396,-96.8429,2.0,203.8614951,25.41212309,-99999.0,'11111222,11111222,99999999' 
TABS,ioos:station:wmo:42048:1,1997-06-01T22:30:00Z,27.9396,-96.8429,2.0,215.415921,24.67594172,-99999.0,'11111222,11111222,99999999' 
TABS,ioos:station:wmo:42048:1,1997-06-01T23:00:00Z,27.9396,-96.8429,2.0,220.1944102,22.62207771,-99999.0,'11111222,11111222,99999999' 
TABS,ioos:station:wmo:42048:1,1997-06-01T23:30:00Z,27.9396,-96.8429,2.0,223.6829767,23.07898828,-99999.0,'11111222,11111222,99999999' 
TABS,ioos:station:wmo:42048:1,1997-06-02T00:00:00Z,27.9396,-96.8429,2.0,224.5149611,25.07490379,-99999.0,'11111222,11111222,99999999' 
TABS,ioos:station:wmo:42048:1,1997-06-02T00:30:00Z,27.9396,-96.8429,2.0,231.2790606,25.01905074,-99999.0,'11111222,11111222,99999999' 
TABS,ioos:station:wmo:42048:1,1997-06-02T01:00:00Z,27.9396,-96.8429,2.0,232.2156032,24.31909538,-99999.0,'11111222,11111222,99999999' 
TABS,ioos:station:wmo:42048:1,1997-06-02T01:30:00Z,27.9396,-96.8429,2.0,238.4543513,25.34536644,-99999.0,'11111222,11111222,99999999' 
TABS,ioos:station:wmo:42048:1,1997-06-02T02:00:00Z,27.9396,-96.8429,2.0,234.1445895,25.18194988,-99999.0,'11111222,11111222,99999999' 
TABS,ioos:station:wmo:42048:1,1997-06-02T02:30:00Z,27.9396,-96.8429,2.0,239.3718703,26.32205539,-99999.0,'11111222,11111222,99999999' 
TABS,ioos:station:wmo:42048:1,1997-06-02T03:00:00Z,27.9396,-96.8429,2.0,234.6204636,25.21653426,-99999.0,'11111222,11111222,99999999' 
TABS,ioos:station:wmo:42048:1,1997-06-02T03:30:00Z,27.9396,-96.8429,2.0,232.3672966,24.64818249,-99999.0,'11111222,11111222,99999999' 
TABS,ioos:station:wmo:42048:1,1997-06-02T04:00:00Z,27.9396,-96.8429,2.0,237.0760631,24.67249886,-99999.0,'11111222,11111222,99999999' 
TABS,ioos:station:wmo:42048:1,1997-06-02T04:30:00Z,27.9396,-96.8429,2.0,231.1763228,23.52767307,-99999.0,'11111222,11111222,99999999' 
TABS,ioos:station:wmo:42048:1,1997-06-02T05:00:00Z,27.9396,-96.8429,2.0,230.4581496,22.22615801,-99999.0,'11111222,11111222,99999999' 
TABS,ioos:station:wmo:42048:1,1997-06-02T05:30:00Z,27.9396,-96.8429,2.0,225.2845325,19.91237304,-99999.0,'11111222,11111222,99999999' 
TABS,ioos:station:wmo:42048:1,1997-06-02T06:00:00Z,27.9396,-96.8429,2.0,214.7398703,20.12790352,-99999.0,'11111222,11111222,99999999' 
TABS,ioos:station:wmo:42048:1,1997-06-02T06:30:00Z,27.9396,-96.8429,2.0,201.2100826,21.42109708,-99999.0,'11111222,11111222,99999999' 
TABS,ioos:station:wmo:42048:1,1997-06-02T07:00:00Z,27.9396,-96.8429,2.0,201.0981049,20.27945759,-99999.0,'11111222,11111222,99999999' 
TABS,ioos:station:wmo:42048:1,1997-06-02T07:30:00Z,27.9396,-96.8429,2.0,202.4351206,20.30702834,-99999.0,'11111222,11111222,99999999' 
TABS,ioos:station:wmo:42048:1,1997-06-02T08:00:00Z,27.9396,-96.8429,2.0,204.2040024,17.80526888,-99999.0,'11111222,11111222,99999999' 
TABS,ioos:station:wmo:42048:1,1997-06-02T08:30:00Z,27.9396,-96.8429,2.0,200.7302137,17.68499929,-99999.0,'11111222,11111222,99999999' 
TABS,ioos:station:wmo:42048:1,1997-06-02T09:00:00Z,27.9396,-96.8429,2.0,202.7087126,15.82694222,-99999.0,'11111222,11111222,99999999' 
TABS,ioos:station:wmo:42048:1,1997-06-02T09:30:00Z,27.9396,-96.8429,2.0,204.4469798,14.40117009,-99999.0,'11111222,11111222,99999999' 
TABS,ioos:station:wmo:42048:1,1997-06-02T10:00:00Z,27.9396,-96.8429,2.0,197.6162417,13.28292137,-99999.0,'11111222,11111222,99999999' 
TABS,ioos:station:wmo:42048:1,1997-06-02T10:30:00Z,27.9396,-96.8429,2.0,194.5636775,11.85079322,-99999.0,'11111222,11111222,99999999' 
TABS,ioos:station:wmo:42048:1,1997-06-02T11:00:00Z,27.9396,-96.8429,2.0,194.6802269,12.94251907,-99999.0,'11111222,11111222,99999999' 
TABS,ioos:station:wmo:42048:1,1997-06-02T11:30:00Z,27.9396,-96.8429,2.0,187.0371366,12.16161996,-99999.0,'11111222,11111222,99999999' 
TABS,ioos:station:wmo:42048:1,1997-06-02T12:00:00Z,27.9396,-96.8429,2.0,189.0960414,11.32238932,-99999.0,'11111222,11111222,99999999' 
TABS,ioos:station:wmo:42048:1,1997-06-02T12:30:00Z,27.9396,-96.8429,2.0,186.6028728,10.34864725,-99999.0,'11111222,11111222,99999999' 
TABS,ioos:station:wmo:42048:1,1997-06-02T13:00:00Z,27.9396,-96.8429,2.0,183.8393769,8.960111606,-99999.0,'11133222,11111222,99999999' 
TABS,ioos:station:wmo:42048:1,1997-06-02T13:30:00Z,27.9396,-96.8429,2.0,179.1386974,9.981127191,-99999.0,'11133222,11111222,99999999' 
TABS,ioos:station:wmo:42048:1,1997-06-02T14:00:00Z,27.9396,-96.8429,2.0,165.1813183,8.17178683,-99999.0,'11133222,11111222,99999999' 
TABS,ioos:station:wmo:42048:1,1997-06-02T14:30:00Z,27.9396,-96.8429,2.0,171.5908975,8.137481183,-99999.0,'11133222,11111222,99999999' 
TABS,ioos:station:wmo:42048:1,1997-06-02T15:00:00Z,27.9396,-96.8429,2.0,172.0950813,6.471491327,-99999.0,'11133222,11111222,99999999' 
TABS,ioos:station:wmo:42048:1,1997-06-02T15:30:00Z,27.9396,-96.8429,2.0,167.9833411,7.15682192,-99999.0,'11133222,11111222,99999999' 
TABS,ioos:station:wmo:42048:1,1997-06-02T16:00:00Z,27.9396,-96.8429,2.0,167.8127744,5.637038229,-99999.0,'11133222,11111222,99999999' 
TABS,ioos:station:wmo:42048:1,1997-06-02T16:30:00Z,27.9396,-96.8429,2.0,157.596975,5.483885484,-99999.0,'11133222,11111222,99999999' 
TABS,ioos:station:wmo:42048:1,1997-06-02T17:00:00Z,27.9396,-96.8429,2.0,159.0608388,5.428489661,-99999.0,'11133222,11111222,99999999' 
TABS,ioos:station:wmo:42048:1,1997-06-02T17:30:00Z,27.9396,-96.8429,2.0,157.7239438,6.278574679,-99999.0,'11133222,11111222,99999999' 
TABS,ioos:station:wmo:42048:1,1997-06-02T18:00:00Z,27.9396,-96.8429,2.0,155.0661975,7.068840075,-99999.0,'11133222,11111222,99999999' 
TABS,ioos:station:wmo:42048:1,1997-06-02T18:30:00Z,27.9396,-96.8429,2.0,142.0953047,5.094830714,-99999.0,'11133222,11111222,99999999' 
TABS,ioos:station:wmo:42048:1,1997-06-02T19:00:00Z,27.9396,-96.8429,2.0,142.2280678,5.844724117,-99999.0,'11133222,11111222,99999999' 
TABS,ioos:station:wmo:42048:1,1997-06-02T19:30:00Z,27.9396,-96.8429,2.0,137.1350318,8.540708402,-99999.0,'11133222,11111222,99999999' 
TABS,ioos:station:wmo:42048:1,1997-06-02T20:00:00Z,27.9396,-96.8429,2.0,137.0236339,12.01416664,-99999.0,'11111222,11111222,99999999' 
TABS,ioos:station:wmo:42048:1,1997-06-02T20:30:00Z,27.9396,-96.8429,2.0,134.9998948,12.00667314,-99999.0,'11111222,11111222,99999999' 
TABS,ioos:station:wmo:42048:1,1997-06-02T21:00:00Z,27.9396,-96.8429,2.0,133.2536172,6.961163696,-99999.0,'11133222,11111222,99999999' 
TABS,ioos:station:wmo:42048:1,1997-06-02T21:30:00Z,27.9396,-96.8429,2.0,131.3538697,8.339526365,-99999.0,'11133222,11111222,99999999' 
TABS,ioos:station:wmo:42048:1,1997-06-02T22:00:00Z,27.9396,-96.8429,2.0,124.761721,6.524415683,-99999.0,'11133222,11111222,99999999' 
TABS,ioos:station:wmo:42048:1,1997-06-02T22:30:00Z,27.9396,-96.8429,2.0,126.1886535,7.570534988,-99999.0,'11133222,11111222,99999999' 
TABS,ioos:station:wmo:42048:1,1997-06-02T23:00:00Z,27.9396,-96.8429,2.0,115.8174648,4.799010315,-99999.0,'11133222,11111222,99999999' 
TABS,ioos:station:wmo:42048:1,1997-06-02T23:30:00Z,27.9396,-96.8429,2.0,113.4801839,3.73965239,-99999.0,'11133222,11111222,99999999' 
TABS,ioos:station:wmo:42048:1,1997-06-03T00:00:00Z,27.9396,-96.8429,2.0,118.0857552,2.527647127,-99999.0,'11133222,11111222,99999999' 
TABS,ioos:station:wmo:42048:1,1997-06-03T00:30:00Z,27.9396,-96.8429,2.0,104.149443,2.454465319,-99999.0,'11133222,11111222,99999999' 
TABS,ioos:station:wmo:42048:1,1997-06-03T01:00:00Z,27.9396,-96.8429,2.0,93.39300313,2.53444274,-99999.0,'11133222,11111222,99999999' 
TABS,ioos:station:wmo:42048:1,1997-06-03T01:30:00Z,27.9396,-96.8429,2.0,76.65857189,2.600173071,-99999.0,'11133222,11111222,99999999' 
TABS,ioos:station:wmo:42048:1,1997-06-03T02:00:00Z,27.9396,-96.8429,2.0,82.18808656,3.310724996,-99999.0,'11133222,11111222,99999999' 
TABS,ioos:station:wmo:42048:1,1997-06-03T02:30:00Z,27.9396,-96.8429,2.0,61.17451432,3.40147027,-99999.0,'11133222,11111222,99999999' 
TABS,ioos:station:wmo:42048:1,1997-06-03T03:00:00Z,27.9396,-96.8429,2.0,55.78016527,4.498810954,-99999.0,'11133222,11111222,99999999' 
TABS,ioos:station:wmo:42048:1,1997-06-03T03:30:00Z,27.9396,-96.8429,2.0,41.16337041,4.755344362,-99999.0,'11133222,11111222,99999999' 
TABS,ioos:station:wmo:42048:1,1997-06-03T04:00:00Z,27.9396,-96.8429,2.0,32.61634381,6.363528895,-99999.0,'11133222,11111222,99999999' 
TABS,ioos:station:wmo:42048:1,1997-06-03T04:30:00Z,27.9396,-96.8429,2.0,32.63056945,6.89887672,-99999.0,'11133222,11111222,99999999' 
TABS,ioos:station:wmo:42048:1,1997-06-03T05:00:00Z,27.9396,-96.8429,2.0,27.81056087,9.259508626,-99999.0,'11133222,11111222,99999999' 
TABS,ioos:station:wmo:42048:1,1997-06-03T05:30:00Z,27.9396,-96.8429,2.0,52.80136303,10.10616643,-99999.0,'11111222,11111222,99999999' 
TABS,ioos:station:wmo:42048:1,1997-06-03T06:00:00Z,27.9396,-96.8429,2.0,67.09622552,11.48552567,-99999.0,'11111222,11111222,99999999' 
TABS,ioos:station:wmo:42048:1,1997-06-03T06:30:00Z,27.9396,-96.8429,2.0,72.65285558,9.994598541,-99999.0,'11133222,11111222,99999999' 
TABS,ioos:station:wmo:42048:1,1997-06-03T07:00:00Z,27.9396,-96.8429,2.0,60.06723165,11.34303751,-99999.0,'11111222,11111222,99999999' 
TABS,ioos:station:wmo:42048:1,1997-06-03T07:30:00Z,27.9396,-96.8429,2.0,50.28187172,12.59756326,-99999.0,'11111222,11111222,99999999' 
TABS,ioos:station:wmo:42048:1,1997-06-03T08:00:00Z,27.9396,-96.8429,2.0,43.30783681,14.12708392,-99999.0,'11111222,11111222,99999999' 
TABS,ioos:station:wmo:42048:1,1997-06-03T08:30:00Z,27.9396,-96.8429,2.0,51.52700236,12.93906488,-99999.0,'11111222,11111222,99999999' 
TABS,ioos:station:wmo:42048:1,1997-06-03T09:00:00Z,27.9396,-96.8429,2.0,52.99930787,11.3820297,-99999.0,'11111222,11111222,99999999' 
TABS,ioos:station:wmo:42048:1,1997-06-03T09:30:00Z,27.9396,-96.8429,2.0,51.75209166,13.47189667,-99999.0,'11111222,11111222,99999999' 
TABS,ioos:station:wmo:42048:1,1997-06-03T10:00:00Z,27.9396,-96.8429,2.0,61.76517966,18.26301454,-99999.0,'11111222,11111222,99999999' 
TABS,ioos:station:wmo:42048:1,1997-06-03T10:30:00Z,27.9396,-96.8429,2.0,65.12302705,18.06632503,-99999.0,'11111222,11111222,99999999' 
TABS,ioos:station:wmo:42048:1,1997-06-03T11:00:00Z,27.9396,-96.8429,2.0,56.42309993,19.67248078,-99999.0,'11111222,11111222,99999999' 
TABS,ioos:station:wmo:42048:1,1997-06-03T11:30:00Z,27.9396,-96.8429,2.0,55.61228533,20.0428042,-99999.0,'11111222,11111222,99999999' 
TABS,ioos:station:wmo:42048:1,1997-06-03T12:00:00Z,27.9396,-96.8429,2.0,48.69613218,19.63476763,-99999.0,'11111222,11111222,99999999' 
TABS,ioos:station:wmo:42048:1,1997-06-03T12:30:00Z,27.9396,-96.8429,2.0,43.93194474,22.7586511,-99999.0,'11111222,11111222,99999999' 
TABS,ioos:station:wmo:42048:1,1997-06-03T13:00:00Z,27.9396,-96.8429,2.0,46.30482148,23.29106481,-99999.0,'11111222,11111222,99999999' 
TABS,ioos:station:wmo:42048:1,1997-06-03T13:30:00Z,27.9396,-96.8429,2.0,39.10691998,23.62200034,-99999.0,'11111222,11111222,99999999' 
TABS,ioos:station:wmo:42048:1,1997-06-03T14:00:00Z,27.9396,-96.8429,2.0,37.32115938,22.86070865,-99999.0,'11111222,11111222,99999999' 
TABS,ioos:station:wmo:42048:1,1997-06-03T14:30:00Z,27.9396,-96.8429,2.0,39.23640289,27.31929721,-99999.0,'11111222,11111222,99999999' 
TABS,ioos:station:wmo:42048:1,1997-06-03T15:00:00Z,27.9396,-96.8429,2.0,45.9209377,32.5594011,-99999.0,'11111222,11111222,99999999' 
TABS,ioos:station:wmo:42048:1,1997-06-03T15:30:00Z,27.9396,-96.8429,2.0,48.83986503,31.46617549,-99999.0,'11111222,11111222,99999999' 
TABS,ioos:station:wmo:42048:1,1997-06-03T16:00:00Z,27.9396,-96.8429,2.0,57.92189619,32.53772119,-99999.0,'11111222,11111222,99999999' 
TABS,ioos:station:wmo:42048:1,1997-06-03T16:30:00Z,27.9396,-96.8429,2.0,59.79634843,30.51228277,-99999.0,'11111222,11111222,99999999' 
TABS,ioos:station:wmo:42048:1,1997-06-03T17:00:00Z,27.9396,-96.8429,2.0,55.81614335,28.63746148,-99999.0,'11111222,11111222,99999999' 
TABS,ioos:station:wmo:42048:1,1997-06-03T17:30:00Z,27.9396,-96.8429,2.0,56.06770327,30.16763995,-99999.0,'11111222,11111222,99999999' 
TABS,ioos:station:wmo:42048:1,1997-06-03T18:00:00Z,27.9396,-96.8429,2.0,55.87442173,27.36137789,-99999.0,'11111222,11111222,99999999' 
TABS,ioos:station:wmo:42048:1,1997-06-03T18:30:00Z,27.9396,-96.8429,2.0,55.53424,27.65433962,-99999.0,'11111222,11111222,99999999' 
TABS,ioos:station:wmo:42048:1,1997-06-03T19:00:00Z,27.9396,-96.8429,2.0,53.77677966,26.22967022,-99999.0,'11111222,11111222,99999999' 
TABS,ioos:station:wmo:42048:1,1997-06-03T19:30:00Z,27.9396,-96.8429,2.0,48.5979969,23.43728653,-99999.0,'11111222,11111222,99999999' 
TABS,ioos:station:wmo:42048:1,1997-06-03T20:00:00Z,27.9396,-96.8429,2.0,45.83580092,21.81656481,-99999.0,'11111222,11111222,99999999' 
TABS,ioos:station:wmo:42048:1,1997-06-03T20:30:00Z,27.9396,-96.8429,2.0,38.53107152,21.52704578,-99999.0,'11111222,11111222,99999999' 
TABS,ioos:station:wmo:42048:1,1997-06-03T21:00:00Z,27.9396,-96.8429,2.0,30.46709637,20.57031356,-99999.0,'11111222,11111222,99999999' 
TABS,ioos:station:wmo:42048:1,1997-06-03T21:30:00Z,27.9396,-96.8429,2.0,20.15505907,25.07550996,-99999.0,'11111222,11111222,99999999' 
TABS,ioos:station:wmo:42048:1,1997-06-03T22:00:00Z,27.9396,-96.8429,2.0,18.62603512,27.52145527,-99999.0,'11111222,11111222,99999999' 
TABS,ioos:station:wmo:42048:1,1997-06-03T22:30:00Z,27.9396,-96.8429,2.0,14.12027417,23.20098274,-99999.0,'11111222,11111222,99999999' 
TABS,ioos:station:wmo:42048:1,1997-06-03T23:00:00Z,27.9396,-96.8429,2.0,9.163836243,28.06822046,-99999.0,'11111222,11111222,99999999' 
TABS,ioos:station:wmo:42048:1,1997-06-03T23:30:00Z,27.9396,-96.8429,2.0,7.737864009,30.97200349,-99999.0,'11111222,11111222,99999999' 
TABS,ioos:station:wmo:42048:1,1997-06-04T00:00:00Z,27.9396,-96.8429,2.0,7.730415799,33.23199964,-99999.0,'11111222,11111222,99999999' 
TABS,ioos:station:wmo:42048:1,1997-06-04T00:30:00Z,27.9396,-96.8429,2.0,13.80338408,26.23772094,-99999.0,'11111222,11111222,99999999' 
TABS,ioos:station:wmo:42048:1,1997-06-04T01:00:00Z,27.9396,-96.8429,2.0,7.77896594,34.13410025,-99999.0,'11111222,11111222,99999999' 
TABS,ioos:station:wmo:42048:1,1997-06-04T01:30:00Z,27.9396,-96.8429,2.0,13.88840625,40.3701895,-99999.0,'11111222,11111222,99999999' 
TABS,ioos:station:wmo:42048:1,1997-06-04T02:00:00Z,27.9396,-96.8429,2.0,14.34455481,46.90221743,-99999.0,'11111222,11111222,99999999' 
TABS,ioos:station:wmo:42048:1,1997-06-04T02:30:00Z,27.9396,-96.8429,2.0,16.19749554,45.92282766,-99999.0,'11111222,11111222,99999999' 
TABS,ioos:station:wmo:42048:1,1997-06-04T03:00:00Z,27.9396,-96.8429,2.0,18.37678729,43.48766492,-99999.0,'11111222,11111222,99999999' 
TABS,ioos:station:wmo:42048:1,1997-06-04T03:30:00Z,27.9396,-96.8429,2.0,19.8114195,45.29055751,-99999.0,'11111222,11111222,99999999' 
TABS,ioos:station:wmo:42048:1,1997-06-04T04:00:00Z,27.9396,-96.8429,2.0,23.92792466,41.89014443,-99999.0,'11111222,11111222,99999999' 
TABS,ioos:station:wmo:42048:1,1997-06-04T04:30:00Z,27.9396,-96.8429,2.0,26.20684067,42.18648362,-99999.0,'11111222,11111222,99999999' 
TABS,ioos:station:wmo:42048:1,1997-06-04T05:00:00Z,27.9396,-96.8429,2.0,27.03792514,40.65309951,-99999.0,'11111222,11111222,99999999' 
TABS,ioos:station:wmo:42048:1,1997-06-04T05:30:00Z,27.9396,-96.8429,2.0,28.42771455,41.00431685,-99999.0,'11111222,11111222,99999999' 
TABS,ioos:station:wmo:42048:1,1997-06-04T06:00:00Z,27.9396,-96.8429,2.0,27.67614262,41.05745365,-99999.0,'11111222,11111222,99999999' 
TABS,ioos:station:wmo:42048:1,1997-06-04T06:30:00Z,27.9396,-96.8429,2.0,30.31733145,40.73007734,-99999.0,'11111222,11111222,99999999' 
TABS,ioos:station:wmo:42048:1,1997-06-04T07:00:00Z,27.9396,-96.8429,2.0,33.56384912,37.73079909,-99999.0,'11111222,11111222,99999999' 
TABS,ioos:station:wmo:42048:1,1997-06-04T07:30:00Z,27.9396,-96.8429,2.0,38.69490591,38.37346218,-99999.0,'11111222,11111222,99999999' 
TABS,ioos:station:wmo:42048:1,1997-06-04T08:00:00Z,27.9396,-96.8429,2.0,40.62973228,37.30228143,-99999.0,'11111222,11111222,99999999' 
TABS,ioos:station:wmo:42048:1,1997-06-04T08:30:00Z,27.9396,-96.8429,2.0,41.65123434,37.88784106,-99999.0,'11111222,11111222,99999999' 
TABS,ioos:station:wmo:42048:1,1997-06-04T09:00:00Z,27.9396,-96.8429,2.0,43.11999535,38.57930145,-99999.0,'11111222,11111222,99999999' 
TABS,ioos:station:wmo:42048:1,1997-06-04T09:30:00Z,27.9396,-96.8429,2.0,43.78340758,39.62812764,-99999.0,'11111222,11111222,99999999' 
TABS,ioos:station:wmo:42048:1,1997-06-04T10:00:00Z,27.9396,-96.8429,2.0,49.55751359,41.11390276,-99999.0,'11111222,11111222,99999999' 
TABS,ioos:station:wmo:42048:1,1997-06-04T10:30:00Z,27.9396,-96.8429,2.0,52.19005842,37.90910313,-99999.0,'11111222,11111222,99999999' 
TABS,ioos:station:wmo:42048:1,1997-06-04T11:00:00Z,27.9396,-96.8429,2.0,56.18095754,36.94035327,-99999.0,'11111222,11111222,99999999' 
TABS,ioos:station:wmo:42048:1,1997-06-04T11:30:00Z,27.9396,-96.8429,2.0,57.46164271,34.63692971,-99999.0,'11111222,11111222,99999999' 
TABS,ioos:station:wmo:42048:1,1997-06-04T12:00:00Z,27.9396,-96.8429,2.0,63.00857211,35.45160363,-99999.0,'11111222,11111222,99999999' 
TABS,ioos:station:wmo:42048:1,1997-06-04T12:30:00Z,27.9396,-96.8429,2.0,62.37717105,32.45982286,-99999.0,'11111222,11111222,99999999' 
TABS,ioos:station:wmo:42048:1,1997-06-04T13:00:00Z,27.9396,-96.8429,2.0,65.07880569,30.40067433,-99999.0,'11111222,11111222,99999999' 
TABS,ioos:station:wmo:42048:1,1997-06-04T13:30:00Z,27.9396,-96.8429,2.0,66.90902434,30.77565596,-99999.0,'11111222,11111222,99999999' 
TABS,ioos:station:wmo:42048:1,1997-06-04T14:00:00Z,27.9396,-96.8429,2.0,64.72822563,29.32679321,-99999.0,'11111222,11111222,99999999' 
TABS,ioos:station:wmo:42048:1,1997-06-04T14:30:00Z,27.9396,-96.8429,2.0,58.77650447,28.74345839,-99999.0,'11111222,11111222,99999999' 
TABS,ioos:station:wmo:42048:1,1997-06-04T15:00:00Z,27.9396,-96.8429,2.0,48.02714792,29.86035666,-99999.0,'11111222,11111222,99999999' 
TABS,ioos:station:wmo:42048:1,1997-06-04T15:30:00Z,27.9396,-96.8429,2.0,46.0499822,28.55776602,-99999.0,'11111222,11111222,99999999' 